CW5458 Weather Reports


time (UTC)temp
C
wind
direction
speed
KPH
gust
KPH
rain 1hr
cm
rain 24hr
cm
rain mn
cm
humidity
%
barometer
mb
20260906124523 23 360 1.6 8.0 0.00 0.08 0.00 91 1013.3
20260906124007 23 360 0.0 9.7 0.00 0.08 0.00 92 1013.2
20260906123514 23 360 1.6 9.7 0.00 0.08 0.00 92 1013.2
20260906123037 23 360 1.6 6.4 0.00 0.08 0.00 92 1013.2
20260906122504 22 360 0.0 6.4 0.00 0.08 0.00 93 1013.2
20260906122017 22 360 0.0 6.4 0.00 0.08 0.00 93 1013.2
20260906121523 22 360 1.6 6.4 0.00 0.08 0.00 93 1013.2
20260906121009 22 360 0.0 4.8 0.00 0.08 0.00 93 1013.2
20260906120506 22 360 0.0 4.8 0.00 0.08 0.00 94 1013.1
20260906120015 22 360 0.0 6.4 0.00 0.08 0.00 94 1013.1
20260906115511 22 360 1.6 6.4 0.00 0.08 0.00 94 1013.0
20260906115012 22 360 0.0 8.0 0.00 0.08 0.00 94 1012.9
20260906114518 22 360 1.6 8.0 0.00 0.08 0.00 94 1012.9
20260906114007 22 360 0.0 6.4 0.00 0.08 0.00 94 1012.8
20260906113512 22 360 0.0 6.4 0.00 0.08 0.00 94 1012.7
20260906113024 22 360 0.0 4.8 0.00 0.08 0.00 94 1012.8
20260906112506 22 360 1.6 4.8 0.00 0.08 0.00 94 1012.7
20260906112017 22 360 0.0 3.2 0.00 0.08 0.00 95 1012.6
20260906111527 22 360 0.0 6.4 0.00 0.08 0.00 95 1012.5
20260906111004 22 360 1.6 6.4 0.00 0.08 0.00 95 1012.5
20260906110516 22 360 0.0 6.4 0.00 0.08 0.00 95 1012.3
20260906110024 22 360 3.2 9.7 0.00 0.08 0.00 95 1012.2
20260906105507 22 360 0.0 9.7 0.00 0.08 0.00 95 1012.1
20260906105007 22 360 1.6 4.8 0.00 0.08 0.00 95 1012.2
20260906104518 22 360 0.0 4.8 0.00 0.08 0.00 95 1012.0
20260906104010 22 360 0.0 4.8 0.00 0.08 0.00 96 1012.0
20260906103512 22 360 0.0 4.8 0.00 0.08 0.00 96 1012.0
20260906103023 22 360 0.0 4.8 0.00 0.08 0.00 96 1012.0
20260906102514 22 360 0.0 4.8 0.00 0.08 0.00 96 1012.0
20260906102014 22 360 0.0 3.2 0.00 0.08 0.00 95 1012.0
20260906101529 22 360 0.0 3.2 0.00 0.08 0.00 95 1011.9
20260906101015 22 360 0.0 3.2 0.00 0.08 0.00 95 1011.8
20260906100514 22 360 0.0 6.4 0.00 0.08 0.00 95 1011.7
20260906100029 22 360 0.0 6.4 0.00 0.08 0.00 95 1011.7
20260906095516 22 360 1.6 6.4 0.00 0.08 0.00 95 1011.7
20260906095016 22 360 1.6 6.4 0.00 0.08 0.00 95 1011.6
20260906094515 22 360 0.0 3.2 0.00 0.08 0.00 95 1011.5
20260906094008 22 360 0.0 4.8 0.00 0.08 0.00 95 1011.5
20260906093510 22 360 0.0 4.8 0.00 0.08 0.00 95 1011.4
20260906093035 22 360 0.0 1.6 0.00 0.08 0.00 95 1011.3
20260906092511 22 360 0.0 3.2 0.00 0.08 0.00 96 1011.3
20260906092020 22 360 0.0 3.2 0.00 0.08 0.00 96 1011.4
20260906091524 22 360 0.0 1.6 0.00 0.08 0.00 96 1011.3
20260906091013 22 360 0.0 1.6 0.00 0.08 0.00 95 1011.3
20260906090516 22 360 0.0 3.2 0.00 0.08 0.00 95 1011.3
20260906090039 22 360 0.0 3.2 0.00 0.08 0.00 96 1011.2
20260906085514 21 360 0.0 1.6 0.00 0.08 0.00 96 1011.1
20260906085015 21 360 0.0 1.6 0.00 0.08 0.00 96 1011.1
20260906084523 21 360 0.0 1.6 0.00 0.08 0.00 96 1011.0
20260906084018 21 360 0.0 3.2 0.00 0.08 0.00 95 1011.0
20260906083514 21 360 0.0 3.2 0.00 0.08 0.00 95 1011.0
20260906083023 21 360 0.0 3.2 0.00 0.08 0.00 95 1011.0
20260906082511 21 360 0.0 3.2 0.00 0.08 0.00 95 1011.0
20260906082014 21 360 0.0 0.0 0.00 0.08 0.00 95 1010.9
20260906081524 21 360 0.0 0.0 0.00 0.08 0.00 95 1010.9
20260906081012 21 360 0.0 0.0 0.00 0.08 0.00 95 1010.8
20260906080514 21 360 0.0 0.0 0.00 0.08 0.00 95 1010.6
20260906080023 21 360 0.0 0.0 0.00 0.08 0.00 95 1010.6
20260906075516 21 360 0.0 0.0 0.00 0.08 0.00 95 1010.7
20260906075014 21 360 0.0 0.0 0.00 0.08 0.00 95 1010.7
20260906074524 21 360 0.0 0.0 0.00 0.08 0.00 95 1010.5
20260906074018 21 360 0.0 0.0 0.00 0.08 0.00 95 1010.4
20260906073514 21 360 0.0 0.0 0.00 0.08 0.00 95 1010.4
20260906073024 21 360 0.0 0.0 0.00 0.08 0.00 95 1010.5
20260906072517 21 360 0.0 0.0 0.00 0.08 0.00 95 1010.6
20260906072014 21 360 0.0 0.0 0.00 0.08 0.00 95 1010.6
20260906071521 21 360 0.0 0.0 0.00 0.08 0.00 95 1010.7
20260906071008 21 360 0.0 0.0 0.00 0.08 0.00 95 1010.6
20260906070514 21 360 0.0 0.0 0.00 0.08 0.00 95 1010.5
20260906070034 21 360 0.0 0.0 0.00 0.08 0.00 95 1010.5
20260906065510 21 360 0.0 0.0 0.00 0.08 0.00 95 1010.5
20260906065014 21 360 0.0 0.0 0.00 0.08 0.00 95 1010.5
20260906064524 21 360 0.0 0.0 0.00 0.08 0.00 95 1010.7
20260906064004 22 360 0.0 0.0 0.00 0.08 0.00 94 1010.7
20260906063505 22 360 0.0 0.0 0.00 0.08 0.00 95 1010.7
20260906063021 22 360 0.0 0.0 0.00 0.08 0.00 94 1010.7
20260906062508 22 360 0.0 0.0 0.00 0.08 0.00 94 1010.8
20260906062006 22 360 0.0 0.0 0.00 0.08 0.00 94 1010.8
20260906061521 22 360 0.0 0.0 0.00 0.08 0.00 94 1010.8
20260906061012 22 360 0.0 0.0 0.00 0.08 0.00 94 1010.9
20260906060512 22 360 0.0 0.0 0.00 0.08 0.00 94 1011.0
20260906060026 22 360 0.0 0.0 0.00 0.08 0.00 94 1011.1
20260906055508 22 360 0.0 0.0 0.00 0.08 0.00 94 1011.2
20260906055013 22 360 0.0 0.0 0.00 0.08 0.00 94 1011.2
20260906054524 22 360 0.0 0.0 0.00 0.08 0.00 94 1011.2
20260906054004 22 360 0.0 0.0 0.00 0.08 0.00 94 1011.3
20260906053514 22 360 0.0 0.0 0.00 0.08 0.00 94 1011.3
20260906053024 22 360 0.0 0.0 0.00 0.08 0.00 94 1011.3
20260906052506 22 360 0.0 0.0 0.00 0.08 0.00 94 1011.4
20260906052008 22 360 0.0 0.0 0.00 0.08 0.00 94 1011.4
20260906051536 22 360 0.0 0.0 0.00 0.08 0.00 94 1011.5
20260906051016 22 360 0.0 0.0 0.00 0.08 0.00 94 1011.5
20260906050509 22 360 0.0 0.0 0.00 0.08 0.00 94 1011.6
20260906050023 22 360 0.0 0.0 0.00 0.08 0.00 94 1011.5
20260906045507 22 360 0.0 0.0 0.00 0.08 0.00 94 1011.6
20260906045012 22 360 0.0 0.0 0.00 0.08 0.00 94 1011.7
20260906044521 22 360 0.0 0.0 0.00 0.08 0.00 94 1011.7
20260906044008 22 360 0.0 1.6 0.00 0.08 0.00 94 1011.7
20260906043517 22 82 0.0 1.6 0.00 0.08 0.00 93 1011.8
20260906043023 22 82 0.0 3.2 0.00 0.08 0.00 93 1011.8
20260906042507 22 82 0.0 3.2 0.00 0.08 0.00 93 1011.8
20260906042016 22 82 0.0 1.6 0.00 0.08 0.00 93 1011.7
20260906041514 22 82 0.0 1.6 0.00 0.08 0.00 93 1011.8
20260906041011 22 82 0.0 3.2 0.00 0.08 0.00 93 1011.8
20260906040508 23 82 0.0 3.2 0.00 0.08 0.00 93 1011.8
20260906040032 23 19 0.0 1.6 0.00 0.08 0.00 93 1011.9
20260906035508 23 19 0.0 1.6 0.00 0.08 0.08 93 1011.9
20260906035012 23 19 0.0 1.6 0.00 0.08 0.08 93 1011.9
20260906034533 23 19 0.0 1.6 0.00 0.08 0.08 93 1011.9
20260906034010 23 19 0.0 3.2 0.00 0.08 0.08 93 1012.0
20260906033518 23 19 0.0 3.2 0.00 0.08 0.08 93 1012.1
20260906033023 23 19 0.0 4.8 0.00 0.08 0.08 93 1012.0
20260906032515 23 19 0.0 4.8 0.00 0.08 0.08 93 1012.1
20260906032016 23 10 1.6 4.8 0.00 0.08 0.08 93 1012.0
20260906031536 23 350 0.0 4.8 0.00 0.08 0.08 93 1012.0
20260906031016 23 39 0.0 4.8 0.00 0.08 0.08 93 1011.9
20260906030517 23 349 0.0 3.2 0.00 0.08 0.08 93 1012.0
20260906030017 23 325 1.6 3.2 0.00 0.08 0.08 93 1011.9
20260906025511 23 19 0.0 3.2 0.00 0.08 0.08 93 1011.8
20260906025012 23 19 0.0 3.2 0.00 0.08 0.08 93 1011.8
20260906024525 23 19 0.0 0.0 0.00 0.08 0.08 93 1011.7
20260906024014 23 174 0.0 0.0 0.00 0.08 0.08 93 1011.8
20260906023515 23 174 0.0 0.0 0.00 0.08 0.08 93 1012.0
20260906023024 23 174 0.0 0.0 0.00 0.08 0.08 93 1012.0
20260906022518 23 174 0.0 0.0 0.00 0.08 0.08 93 1011.9
20260906022017 23 174 0.0 0.0 0.00 0.08 0.08 93 1011.9
20260906021527 23 174 0.0 0.0 0.00 0.08 0.08 93 1011.7
20260906021017 23 174 0.0 0.0 0.00 0.08 0.08 93 1011.5
20260906020517 23 174 0.0 0.0 0.00 0.08 0.08 93 1011.4
20260906020027 23 174 0.0 0.0 0.00 0.08 0.08 93 1011.4
20260906015516 23 174 0.0 0.0 0.00 0.08 0.08 93 1011.4
20260906015010 23 174 0.0 0.0 0.00 0.08 0.08 93 1011.5
20260906014527 23 174 0.0 0.0 0.00 0.08 0.08 93 1011.5
20260906014011 23 174 0.0 0.0 0.00 0.08 0.08 93 1011.5
20260906013514 23 174 0.0 0.0 0.00 0.08 0.08 93 1011.5
20260906013028 23 174 0.0 0.0 0.00 0.08 0.08 93 1011.5
20260906012515 23 174 0.0 0.0 0.00 0.08 0.08 92 1011.3
20260906012004 23 174 0.0 0.0 0.00 0.08 0.08 92 1011.3
20260906011509 23 174 0.0 0.0 0.00 0.08 0.08 92 1011.3
20260906011007 23 174 0.0 0.0 0.00 0.08 0.08 92 1011.3
20260906010504 23 174 0.0 0.0 0.00 0.08 0.08 92 1011.2
20260906010010 23 174 0.0 0.0 0.00 0.08 0.08 92 1011.3
20260906005505 23 174 0.0 0.0 0.00 0.08 0.08 92 1011.3
20260906005004 23 174 0.0 0.0 0.00 0.08 0.08 92 1011.3
20260906004521 23 174 0.0 0.0 0.00 0.08 0.08 92 1011.1
20260906004008 23 174 0.0 0.0 0.00 0.08 0.08 92 1011.1
20260906003504 23 174 0.0 0.0 0.00 0.08 0.08 91 1011.2
20260906003027 24 174 0.0 0.0 0.00 0.08 0.08 91 1011.3
20260906002501 24 174 0.0 0.0 0.00 0.08 0.08 91 1011.2
20260906002002 24 174 0.0 0.0 0.00 0.08 0.08 91 1011.1
20260906001510 24 174 0.0 0.0 0.00 0.08 0.08 91 1011.0
20260906001001 24 174 0.0 0.0 0.00 0.08 0.08 91 1010.9
20260906000501 24 174 0.0 0.0 0.00 0.08 0.08 91 1010.8
20260906000008 24 174 0.0 0.0 0.00 0.08 0.08 90 1010.8
20260905235506 24 174 0.0 0.0 0.00 0.08 0.08 91 1010.7
20260905235004 24 174 0.0 0.0 0.00 0.08 0.08 90 1010.7
20260905234518 24 174 0.0 0.0 0.00 0.08 0.08 90 1010.6
20260905234006 24 174 0.0 0.0 0.00 0.08 0.08 90 1010.5
20260905233502 24 174 0.0 0.0 0.00 0.08 0.08 90 1010.4
20260905233023 24 174 0.0 0.0 0.00 0.08 0.08 89 1010.3
20260905232506 24 174 0.0 0.0 0.00 0.08 0.08 90 1010.2
20260905232003 25 174 0.0 0.0 0.00 0.08 0.08 90 1010.1
20260905231530 25 174 0.0 0.0 0.00 0.08 0.08 90 1010.1
20260905231003 25 174 0.0 0.0 0.00 0.08 0.08 90 1010.0
20260905230503 25 174 0.0 0.0 0.00 0.08 0.08 90 1009.7
20260905230009 25 174 0.0 0.0 0.00 0.08 0.08 89 1009.5
20260905225502 25 174 0.0 0.0 0.00 0.08 0.08 90 1009.4
20260905225001 24 174 0.0 0.0 0.00 0.08 0.08 91 1009.5
20260905224513 24 174 0.0 0.0 0.00 0.08 0.08 91 1009.3
20260905224008 24 174 0.0 0.0 0.00 0.08 0.08 92 1009.2
20260905223502 24 174 0.0 0.0 0.00 0.08 0.08 91 1009.3
20260905223020 24 174 0.0 0.0 0.03 0.08 0.08 91 1009.5
20260905222509 24 174 0.0 0.0 0.03 0.08 0.08 91 1009.5
20260905222003 24 174 0.0 0.0 0.03 0.08 0.08 91 1009.8
20260905221527 24 183 0.0 0.0 0.05 0.08 0.08 91 1009.8
20260905221008 24 183 0.0 3.2 0.05 0.08 0.08 91 1009.9
20260905220502 24 183 0.0 3.2 0.05 0.08 0.08 90 1010.1
20260905220008 24 130 0.0 3.2 0.08 0.08 0.08 90 1010.2
20260905215502 24 58 0.0 0.0 0.08 0.08 0.08 89 1010.1
20260905215001 24 58 0.0 0.0 0.08 0.08 0.08 89 1010.1
20260905214510 24 58 0.0 0.0 0.08 0.08 0.08 88 1009.9
20260905214006 25 58 0.0 1.6 0.08 0.08 0.08 87 1009.8
20260905213503 25 58 0.0 4.8 0.08 0.08 0.08 84 1010.0
20260905213018 25 58 0.0 4.8 0.05 0.05 0.05 83 1009.9
20260905212509 26 70 0.0 3.2 0.05 0.05 0.05 81 1009.9
20260905212002 26 70 0.0 3.2 0.05 0.05 0.05 80 1009.7
20260905211525 26 122 0.0 3.2 0.03 0.03 0.03 78 1009.9
20260905211007 27 98 0.0 4.8 0.03 0.03 0.03 76 1010.1
20260905210502 27 139 0.0 6.4 0.03 0.03 0.03 72 1010.2
20260905210043 27 286 0.0 8.0 0.00 0.00 0.00 69 1010.0
20260905205506 28 173 1.6 12.9 0.00 0.00 0.00 67 1009.7
20260905205004 28 173 1.6 12.9 0.00 0.00 0.00 64 1009.7
20260905204508 28 211 3.2 8.0 0.00 0.00 0.00 65 1009.7
20260905204003 28 245 0.0 8.0 0.00 0.00 0.00 64 1009.7
20260905203503 28 188 1.6 9.7 0.00 0.00 0.00 63 1009.7
20260905203013 29 167 3.2 11.3 0.00 0.00 0.00 63 1009.8
20260905202508 29 304 4.8 11.3 0.00 0.00 0.00 62 1009.7
20260905202003 30 300 0.0 17.7 0.00 0.00 0.00 62 1009.8
20260905201521 30 203 4.8 17.7 0.00 0.00 0.00 60 1010.1
20260905201011 31 150 6.4 16.1 0.00 0.00 0.00 57 1010.0
20260905200504 32 217 3.2 19.3 0.00 0.00 0.00 56 1009.5
20260905200028 33 193 3.2 19.3 0.00 0.00 0.00 54 1009.4
20260905195508 34 142 9.7 17.7 0.00 0.00 0.00 51 1009.5
20260905195017 35 175 3.2 9.7 0.00 0.00 0.00 50 1009.2
20260905194527 35 205 1.6 8.0 0.00 0.00 0.00 47 1009.0
20260905194008 36 159 0.0 6.4 0.00 0.00 0.00 48 1009.2
20260905193503 36 206 1.6 6.4 0.00 0.00 0.00 48 1009.2
20260905193012 36 36 1.6 6.4 0.00 0.00 0.00 48 1009.1
20260905192506 36 202 1.6 4.8 0.00 0.00 0.00 48 1009.0
20260905192017 36 206 0.0 6.4 0.00 0.00 0.00 47 1009.0
20260905191530 36 184 1.6 6.4 0.00 0.00 0.00 46 1008.8
20260905191010 36 168 1.6 6.4 0.00 0.00 0.00 43 1008.9
20260905190511 36 244 1.6 6.4 0.00 0.00 0.00 45 1009.0
20260905190025 36 184 0.0 6.4 0.00 0.00 0.00 42 1009.0
20260905185512 36 5 1.6 12.9 0.00 0.00 0.00 40 1009.0
20260905185017 36 116 1.6 12.9 0.00 0.00 0.00 43 1008.9
20260905184530 35 97 0.0 9.7 0.00 0.00 0.00 46 1009.0
20260905184016 35 263 1.6 6.4 0.00 0.00 0.00 45 1009.0
20260905183517 35 239 3.2 6.4 0.00 0.00 0.00 47 1009.2
20260905183031 35 212 1.6 8.0 0.00 0.00 0.00 47 1009.4
20260905182517 35 199 0.0 9.7 0.00 0.00 0.00 49 1009.6
20260905182016 35 215 3.2 9.7 0.00 0.00 0.00 48 1009.7
20260905181530 35 113 0.0 11.3 0.00 0.00 0.00 48 1009.7
20260905181020 36 216 4.8 11.3 0.00 0.00 0.00 46 1009.8
20260905180514 36 194 3.2 8.0 0.00 0.00 0.00 48 1009.9
20260905180027 36 119 3.2 6.4 0.00 0.00 0.00 47 1010.1
20260905175512 36 333 3.2 6.4 0.00 0.00 0.00 49 1010.2
20260905175012 35 313 1.6 12.9 0.00 0.00 0.00 51 1010.4
20260905174529 35 126 1.6 12.9 0.00 0.00 0.00 51 1010.4
20260905174014 35 81 1.6 9.7 0.00 0.00 0.00 51 1010.7
20260905173514 34 111 1.6 9.7 0.00 0.00 0.00 51 1010.7
20260905173028 34 10 3.2 9.7 0.00 0.00 0.00 52 1010.9
20260905172517 34 139 1.6 9.7 0.00 0.00 0.00 52 1011.0
20260905172018 35 218 3.2 11.3 0.00 0.00 0.00 52 1011.1
20260905171536 35 219 4.8 11.3 0.00 0.00 0.00 53 1011.2
20260905171018 35 130 1.6 19.3 0.00 0.00 0.00 53 1011.3
20260905170514 34 127 1.6 19.3 0.00 0.00 0.00 53 1011.4
20260905170029 34 248 4.8 19.3 0.00 0.00 0.00 53 1011.3
20260905165520 34 146 1.6 11.3 0.00 0.00 0.00 54 1011.3
20260905165020 33 109 3.2 11.3 0.00 0.00 0.00 56 1011.4
20260905164526 33 150 4.8 11.3 0.00 0.00 0.00 56 1011.5
20260905164012 33 97 3.2 11.3 0.00 0.00 0.00 57 1011.5
20260905163518 33 207 1.6 9.7 0.00 0.00 0.00 59 1011.5
20260905163034 33 177 4.8 9.7 0.00 0.00 0.00 57 1011.5
20260905162515 33 124 3.2 9.7 0.00 0.00 0.00 57 1011.7
20260905162017 32 268 1.6 11.3 0.00 0.00 0.00 59 1011.9
20260905161528 32 134 1.6 11.3 0.00 0.00 0.00 60 1011.9
20260905161018 32 225 3.2 11.3 0.00 0.00 0.00 61 1012.0
20260905160516 32 175 1.6 11.3 0.00 0.00 0.00 60 1012.0
20260905160030 32 109 4.8 11.3 0.00 0.00 0.00 61 1012.1
20260905155519 32 106 1.6 9.7 0.00 0.00 0.00 62 1012.3
20260905155018 31 187 1.6 11.3 0.00 0.00 0.00 64 1012.3
20260905154528 31 216 3.2 11.3 0.00 0.00 0.00 63 1012.4
20260905154019 31 138 4.8 11.3 0.00 0.00 0.00 63 1012.6
20260905153517 31 200 1.6 14.5 0.00 0.00 0.00 64 1012.5
20260905153029 31 191 1.6 14.5 0.00 0.00 0.00 65 1012.5
20260905152514 31 174 0.0 11.3 0.00 0.00 0.00 65 1012.4
20260905152014 31 128 1.6 14.5 0.00 0.00 0.00 65 1012.5
20260905151529 31 133 0.0 14.5 0.00 0.00 0.00 67 1012.5
20260905151013 31 250 1.6 24.1 0.00 0.00 0.00 67 1012.6
20260905150515 30 57 4.8 24.1 0.00 0.00 0.00 67 1012.5
20260905150039 30 146 1.6 6.4 0.00 0.00 0.00 67 1012.6
20260905145514 30 162 1.6 9.7 0.00 0.00 0.00 68 1012.6
20260905145014 30 232 4.8 9.7 0.00 0.00 0.00 69 1012.7
20260905144535 30 60 1.6 6.4 0.00 0.00 0.00 69 1012.7
20260905144017 30 271 0.0 9.7 0.00 0.00 0.00 70 1012.6
20260905143517 30 90 0.0 14.5 0.00 0.00 0.00 70 1012.5
20260905143029 29 215 1.6 14.5 0.00 0.00 0.00 71 1012.5
20260905142516 29 252 0.0 8.0 0.00 0.00 0.00 71 1012.7
20260905142020 29 180 1.6 11.3 0.00 0.00 0.00 72 1012.6
20260905141527 29 179 3.2 11.3 0.00 0.00 0.00 73 1012.5
20260905141016 28 244 1.6 4.8 0.00 0.00 0.00 75 1012.5
20260905140516 28 208 0.0 3.2 0.00 0.00 0.00 76 1012.4
20260905140030 28 333 0.0 6.4 0.00 0.00 0.00 76 1012.4
20260905135516 28 257 1.6 8.0 0.00 0.00 0.00 78 1012.4
20260905135018 27 259 1.6 8.0 0.00 0.00 0.00 78 1012.4
20260905134531 27 219 1.6 6.4 0.00 0.00 0.00 79 1012.5
20260905134018 27 346 0.0 6.4 0.00 0.00 0.00 80 1012.6
20260905133515 27 5 1.6 6.4 0.00 0.00 0.00 80 1012.7
20260905133035 26 263 1.6 6.4 0.00 0.00 0.00 82 1012.7
20260905132522 26 232 0.0 6.4 0.00 0.00 0.00 82 1012.6
20260905132002 26 284 1.6 6.4 0.00 0.00 0.00 83 1012.6
20260905131536 26 345 1.6 6.4 0.00 0.00 0.00 83 1012.7
20260905131008 26 26 1.6 8.0 0.00 0.00 0.00 84 1012.7
20260905130503 26 313 0.0 8.0 0.00 0.00 0.00 85 1012.7
20260905130030 25 183 0.0 8.0 0.00 0.00 0.00 86 1012.7
20260905125510 25 214 1.6 6.4 0.00 0.00 0.00 86 1012.8
20260905125004 25 266 0.0 3.2 0.00 0.00 0.00 87 1012.8